Вернуться в каталог

CZ-4 DEB

АктивенSSO
NORAD 20879·DEBRIS·🇨🇳 China

Запущен Sep 3, 1990 с Taiyuan Satellite Launch Center

Loading…

Ближайшие Пролёты (ближайшие 24 часа)

TLE

СвежийSource: Space-Track

Эпоха: Sep 14, 2026, 13:06 UTC

1 20879U 90081AP  26257.54594451  .00000582  00000-0  37263-3 0  9992
2 20879  99.4061 104.3891 0096815 284.9730 103.1473 14.05430975654209

Отслеживайте CZ-4 DEB в реальном времени с AllMySat

Download on the App Store